Year,Month,Day,Hour,Minute,Value (Times are PST for windgust in km/hr)
2014,06,19,00,00,4.80
2014,06,19,00,01,1.60
2014,06,19,00,02,3.20
2014,06,19,00,03,3.20
2014,06,19,00,04,3.20
2014,06,19,00,05,6.40
2014,06,19,00,06,3.20
2014,06,19,00,07,4.80
2014,06,19,00,08,3.20
2014,06,19,00,09,4.80
2014,06,19,00,10,4.80
2014,06,19,00,11,6.40
2014,06,19,00,12,4.80
2014,06,19,00,16,1.60
2014,06,19,00,19,3.20
2014,06,19,00,23,1.60
2014,06,19,00,28,1.60
2014,06,19,00,30,1.60
2014,06,19,00,31,3.20
2014,06,19,00,32,4.80
2014,06,19,00,33,6.40
2014,06,19,00,34,4.80
2014,06,19,00,35,3.20
2014,06,19,00,39,3.20
2014,06,19,00,41,1.60
2014,06,19,00,43,1.60
2014,06,19,00,44,3.20
2014,06,19,00,45,4.80
2014,06,19,00,46,3.20
2014,06,19,00,47,3.20
2014,06,19,00,49,1.60
2014,06,19,00,50,3.20
2014,06,19,00,51,6.40
2014,06,19,00,52,1.60
2014,06,19,00,54,4.80
2014,06,19,00,55,4.80
2014,06,19,00,56,1.60
2014,06,19,00,58,1.60
2014,06,19,00,59,4.80
2014,06,19,01,00,4.80
2014,06,19,01,01,4.80
2014,06,19,01,02,3.20
2014,06,19,01,04,4.80
2014,06,19,01,05,4.80
2014,06,19,01,06,8.10
2014,06,19,01,07,4.80
2014,06,19,01,08,9.60
2014,06,19,01,09,6.40
2014,06,19,01,10,6.40
2014,06,19,01,11,6.40
2014,06,19,01,12,6.40
2014,06,19,01,13,8.10
2014,06,19,01,14,8.10
2014,06,19,01,15,8.10
2014,06,19,01,16,9.60
2014,06,19,01,17,8.10
2014,06,19,01,18,8.10
2014,06,19,01,19,9.60
2014,06,19,01,20,8.10
2014,06,19,01,21,8.10
2014,06,19,01,22,6.40
2014,06,19,01,23,8.10
2014,06,19,01,24,9.60
2014,06,19,01,25,8.10
2014,06,19,01,26,8.10
2014,06,19,01,27,14.50
2014,06,19,01,28,11.30
2014,06,19,01,29,6.40
2014,06,19,01,30,6.40
2014,06,19,01,31,8.10
2014,06,19,01,32,4.80
2014,06,19,01,33,4.80
2014,06,19,01,34,9.60
2014,06,19,01,35,8.10
2014,06,19,01,36,6.40
2014,06,19,01,37,8.10
2014,06,19,01,38,3.20
2014,06,19,01,39,9.60
2014,06,19,01,40,6.40
2014,06,19,01,41,4.80
2014,06,19,01,42,8.10
2014,06,19,01,43,8.10
2014,06,19,01,44,8.10
2014,06,19,01,45,9.60
2014,06,19,01,46,9.60
2014,06,19,01,47,9.60
2014,06,19,01,48,6.40
2014,06,19,01,49,11.30
2014,06,19,01,50,11.30
2014,06,19,01,51,11.30
2014,06,19,01,52,9.60
2014,06,19,01,53,16.10
2014,06,19,01,54,14.50
2014,06,19,01,55,14.50
2014,06,19,01,56,11.30
2014,06,19,01,57,12.90
2014,06,19,01,58,12.90
2014,06,19,01,59,9.60
2014,06,19,02,00,11.30
2014,06,19,02,01,9.60
2014,06,19,02,02,8.10
2014,06,19,02,03,8.10
2014,06,19,02,04,8.10
2014,06,19,02,05,11.30
2014,06,19,02,06,4.80
2014,06,19,02,08,6.40
2014,06,19,02,10,6.40
2014,06,19,02,11,4.80
2014,06,19,02,12,8.10
2014,06,19,02,13,6.40
2014,06,19,02,14,6.40
2014,06,19,02,15,6.40
2014,06,19,02,16,8.10
2014,06,19,02,17,9.60
2014,06,19,02,18,6.40
2014,06,19,02,19,11.30
2014,06,19,02,20,9.60
2014,06,19,02,21,6.40
2014,06,19,02,22,8.10
2014,06,19,02,23,9.60
2014,06,19,02,24,9.60
2014,06,19,02,25,11.30
2014,06,19,02,26,8.10
2014,06,19,02,27,9.60
2014,06,19,02,28,11.30
2014,06,19,02,29,8.10
2014,06,19,02,30,6.40
2014,06,19,02,31,6.40
2014,06,19,02,32,8.10
2014,06,19,02,33,8.10
2014,06,19,02,34,9.60
2014,06,19,02,35,6.40
2014,06,19,02,36,4.80
2014,06,19,02,37,4.80
2014,06,19,02,38,9.60
2014,06,19,02,39,6.40
2014,06,19,02,40,11.30
2014,06,19,02,41,9.60
2014,06,19,02,42,3.20
2014,06,19,02,43,3.20
2014,06,19,02,44,8.10
2014,06,19,02,45,6.40
2014,06,19,02,46,6.40
2014,06,19,02,47,6.40
2014,06,19,02,48,6.40
2014,06,19,02,49,6.40
2014,06,19,02,50,9.60
2014,06,19,02,51,9.60
2014,06,19,02,52,8.10
2014,06,19,02,53,6.40
2014,06,19,02,54,11.30
2014,06,19,02,55,8.10
2014,06,19,02,56,9.60
2014,06,19,02,57,8.10
2014,06,19,02,58,8.10
2014,06,19,02,59,8.10
2014,06,19,03,00,8.10
2014,06,19,03,01,14.50
2014,06,19,03,02,9.60
2014,06,19,03,03,6.40
2014,06,19,03,04,6.40
2014,06,19,03,05,6.40
2014,06,19,03,06,4.80
2014,06,19,03,07,8.10
2014,06,19,03,08,9.60
2014,06,19,03,09,8.10
2014,06,19,03,10,6.40
2014,06,19,03,11,8.10
2014,06,19,03,12,8.10
2014,06,19,03,13,6.40
2014,06,19,03,14,4.80
2014,06,19,03,15,4.80
2014,06,19,03,16,4.80
2014,06,19,03,17,6.40
2014,06,19,03,18,6.40
2014,06,19,03,19,3.20
2014,06,19,03,20,4.80
2014,06,19,03,21,4.80
2014,06,19,03,22,3.20
2014,06,19,03,23,4.80
2014,06,19,03,24,3.20
2014,06,19,03,25,4.80
2014,06,19,03,26,4.80
2014,06,19,03,27,4.80
2014,06,19,03,28,4.80
2014,06,19,03,29,4.80
2014,06,19,03,30,1.60
2014,06,19,03,31,3.20
2014,06,19,03,32,4.80
2014,06,19,03,33,6.40
2014,06,19,03,34,4.80
2014,06,19,03,35,3.20
2014,06,19,03,36,4.80
2014,06,19,03,37,3.20
2014,06,19,03,38,4.80
2014,06,19,03,39,3.20
2014,06,19,03,40,4.80
2014,06,19,03,42,1.60
2014,06,19,03,43,3.20
2014,06,19,03,44,4.80
2014,06,19,03,45,1.60
2014,06,19,03,46,3.20
2014,06,19,03,47,3.20
2014,06,19,03,50,3.20
2014,06,19,03,51,3.20
2014,06,19,03,52,4.80
2014,06,19,03,53,4.80
2014,06,19,03,54,1.60
2014,06,19,03,55,4.80
2014,06,19,03,56,4.80
2014,06,19,03,57,3.20
2014,06,19,03,58,6.40
2014,06,19,03,59,4.80
2014,06,19,04,00,4.80
2014,06,19,04,01,4.80
2014,06,19,04,02,1.60
2014,06,19,04,03,4.80
2014,06,19,04,04,4.80
2014,06,19,04,05,3.20
2014,06,19,04,07,3.20
2014,06,19,04,08,3.20
2014,06,19,04,09,6.40
2014,06,19,04,10,4.80
2014,06,19,04,11,1.60
2014,06,19,04,12,1.60
2014,06,19,04,15,1.60
2014,06,19,04,16,6.40
2014,06,19,04,17,1.60
2014,06,19,04,18,1.60
2014,06,19,04,19,4.80
2014,06,19,04,20,4.80
2014,06,19,04,21,6.40
2014,06,19,04,22,3.20
2014,06,19,04,23,4.80
2014,06,19,04,24,4.80
2014,06,19,04,25,6.40
2014,06,19,04,26,6.40
2014,06,19,04,27,3.20
2014,06,19,04,28,6.40
2014,06,19,04,29,6.40
2014,06,19,04,30,4.80
2014,06,19,04,31,4.80
2014,06,19,04,32,8.10
2014,06,19,04,33,3.20
2014,06,19,04,36,4.80
2014,06,19,04,37,1.60
2014,06,19,04,54,3.20
2014,06,19,04,55,1.60
2014,06,19,05,13,3.20
2014,06,19,05,14,6.40
2014,06,19,05,15,6.40
2014,06,19,05,16,6.40
2014,06,19,05,17,6.40
2014,06,19,05,18,6.40
2014,06,19,05,19,4.80
2014,06,19,05,20,1.60
2014,06,19,05,21,3.20
2014,06,19,05,22,4.80
2014,06,19,05,23,6.40
2014,06,19,05,24,9.60
2014,06,19,05,25,6.40
2014,06,19,05,26,4.80
2014,06,19,05,28,1.60
2014,06,19,05,29,6.40
2014,06,19,05,30,6.40
2014,06,19,05,31,8.10
2014,06,19,05,32,8.10
2014,06,19,05,33,6.40
2014,06,19,05,34,6.40
2014,06,19,05,35,6.40
2014,06,19,05,36,8.10
2014,06,19,05,37,8.10
2014,06,19,05,38,8.10
2014,06,19,05,39,4.80
2014,06,19,05,40,6.40
2014,06,19,05,41,6.40
2014,06,19,05,42,8.10
2014,06,19,05,43,4.80
2014,06,19,05,44,8.10
2014,06,19,05,45,4.80
2014,06,19,05,46,6.40
2014,06,19,05,47,8.10
2014,06,19,05,48,4.80
2014,06,19,05,49,6.40
2014,06,19,05,50,6.40
2014,06,19,05,51,6.40
2014,06,19,05,52,6.40
2014,06,19,05,53,6.40
2014,06,19,05,54,6.40
2014,06,19,05,55,4.80
2014,06,19,05,56,4.80
2014,06,19,05,57,8.10
2014,06,19,05,58,6.40
2014,06,19,05,59,4.80
2014,06,19,06,00,3.20
2014,06,19,06,01,4.80
2014,06,19,07,01,1.60
2014,06,19,07,02,4.80
2014,06,19,07,03,3.20
2014,06,19,07,05,3.20
2014,06,19,07,06,3.20
2014,06,19,07,10,3.20
2014,06,19,07,11,3.20
2014,06,19,07,24,1.60
2014,06,19,07,27,1.60
2014,06,19,07,28,1.60
2014,06,19,07,39,1.60
2014,06,19,07,51,3.20
2014,06,19,08,07,3.20
2014,06,19,08,09,3.20
2014,06,19,08,10,3.20
2014,06,19,08,11,1.60
2014,06,19,08,20,4.80
2014,06,19,08,21,4.80
2014,06,19,08,22,4.80
2014,06,19,08,23,3.20
2014,06,19,08,24,1.60
2014,06,19,08,27,3.20
2014,06,19,08,28,3.20
2014,06,19,08,29,3.20
2014,06,19,08,30,1.60
2014,06,19,08,31,3.20
2014,06,19,08,32,3.20
2014,06,19,08,34,1.60
2014,06,19,08,35,4.80
2014,06,19,08,36,3.20
2014,06,19,08,37,3.20
2014,06,19,08,41,3.20
2014,06,19,08,42,4.80
2014,06,19,08,43,6.40
2014,06,19,08,44,4.80
2014,06,19,08,45,8.10
2014,06,19,08,46,9.60
2014,06,19,08,47,8.10
2014,06,19,08,48,11.30
2014,06,19,08,49,9.60
2014,06,19,08,50,8.10
2014,06,19,08,51,8.10
2014,06,19,08,52,9.60
2014,06,19,08,53,9.60
2014,06,19,08,54,6.40
2014,06,19,08,55,9.60
2014,06,19,08,56,8.10
2014,06,19,08,57,6.40
2014,06,19,08,58,9.60
2014,06,19,08,59,8.10
2014,06,19,09,00,6.40
2014,06,19,09,01,11.30
2014,06,19,09,02,11.30
2014,06,19,09,03,8.10
2014,06,19,09,04,4.80
2014,06,19,09,05,9.60
2014,06,19,09,06,8.10
2014,06,19,09,07,9.60
2014,06,19,09,08,3.20
2014,06,19,09,09,3.20
2014,06,19,09,10,1.60
2014,06,19,09,11,4.80
2014,06,19,09,12,3.20
2014,06,19,09,13,4.80
2014,06,19,09,14,6.40
2014,06,19,09,15,3.20
2014,06,19,09,16,3.20
2014,06,19,09,17,4.80
2014,06,19,09,20,1.60
2014,06,19,09,22,4.80
2014,06,19,09,23,4.80
2014,06,19,09,24,3.20
2014,06,19,09,25,3.20
2014,06,19,09,26,4.80
2014,06,19,09,27,3.20
2014,06,19,09,29,3.20
2014,06,19,09,30,3.20
2014,06,19,09,31,4.80
2014,06,19,09,32,4.80
2014,06,19,09,33,8.10
2014,06,19,09,34,8.10
2014,06,19,09,35,8.10
2014,06,19,09,36,8.10
2014,06,19,09,37,8.10
2014,06,19,09,38,8.10
2014,06,19,09,39,8.10
2014,06,19,09,40,8.10
2014,06,19,09,41,11.30
2014,06,19,09,42,9.60
2014,06,19,09,43,9.60
2014,06,19,09,44,8.10
2014,06,19,09,45,9.60
2014,06,19,09,46,9.60
2014,06,19,09,47,9.60
2014,06,19,09,48,9.60
2014,06,19,09,49,11.30
2014,06,19,09,50,9.60
2014,06,19,09,51,6.40
2014,06,19,09,52,8.10
2014,06,19,09,53,8.10
2014,06,19,09,54,4.80
2014,06,19,09,55,3.20
2014,06,19,09,56,4.80
2014,06,19,09,57,6.40
2014,06,19,09,58,9.60
2014,06,19,09,59,11.30
2014,06,19,10,00,6.40
2014,06,19,10,01,6.40
2014,06,19,10,02,11.30
2014,06,19,10,03,6.40
2014,06,19,10,04,6.40
2014,06,19,10,05,11.30
2014,06,19,10,06,9.60
2014,06,19,10,07,9.60
2014,06,19,10,08,4.80
2014,06,19,10,09,1.60
2014,06,19,10,11,6.40
2014,06,19,10,12,4.80
2014,06,19,10,13,3.20
2014,06,19,10,14,11.30
2014,06,19,10,15,8.10
2014,06,19,10,16,6.40
2014,06,19,10,17,8.10
2014,06,19,10,18,8.10
2014,06,19,10,19,11.30
2014,06,19,10,20,6.40
2014,06,19,10,21,8.10
2014,06,19,10,22,8.10
2014,06,19,10,23,4.80
2014,06,19,10,24,6.40
2014,06,19,10,25,4.80
2014,06,19,10,26,11.30
2014,06,19,10,27,8.10
2014,06,19,10,28,11.30
2014,06,19,10,29,11.30
2014,06,19,10,30,8.10
2014,06,19,10,31,9.60
2014,06,19,10,32,11.30
2014,06,19,10,33,8.10
2014,06,19,10,34,4.80
2014,06,19,10,35,6.40
2014,06,19,10,36,9.60
2014,06,19,10,37,11.30
2014,06,19,10,38,9.60
2014,06,19,10,39,6.40
2014,06,19,10,40,11.30
2014,06,19,10,41,11.30
2014,06,19,10,42,12.90
2014,06,19,10,43,9.60
2014,06,19,10,44,4.80
2014,06,19,10,45,8.10
2014,06,19,10,46,8.10
2014,06,19,10,47,3.20
2014,06,19,10,48,8.10
2014,06,19,10,49,6.40
2014,06,19,10,50,4.80
2014,06,19,10,51,11.30
2014,06,19,10,52,11.30
2014,06,19,10,53,11.30
2014,06,19,10,54,8.10
2014,06,19,10,55,8.10
2014,06,19,10,56,11.30
2014,06,19,10,57,8.10
2014,06,19,10,58,9.60
2014,06,19,10,59,11.30
2014,06,19,11,00,9.60
2014,06,19,11,01,8.10
2014,06,19,11,02,6.40
2014,06,19,11,03,8.10
2014,06,19,11,04,6.40
2014,06,19,11,07,8.10
2014,06,19,11,08,8.10
2014,06,19,11,09,6.40
2014,06,19,11,10,9.60
2014,06,19,11,11,11.30
2014,06,19,11,12,9.60
2014,06,19,11,13,4.80
2014,06,19,11,14,11.30
2014,06,19,11,15,9.60
2014,06,19,11,16,6.40
2014,06,19,11,17,11.30
2014,06,19,11,18,8.10
2014,06,19,11,19,8.10
2014,06,19,11,20,8.10
2014,06,19,11,21,8.10
2014,06,19,11,22,6.40
2014,06,19,11,23,6.40
2014,06,19,11,24,8.10
2014,06,19,11,25,8.10
2014,06,19,11,26,9.60
2014,06,19,11,27,4.80
2014,06,19,11,29,4.80
2014,06,19,11,30,4.80
2014,06,19,11,31,4.80
2014,06,19,11,32,8.10
2014,06,19,11,33,6.40
2014,06,19,11,34,6.40
2014,06,19,11,35,11.30
2014,06,19,11,36,9.60
2014,06,19,11,37,8.10
2014,06,19,11,38,8.10
2014,06,19,11,39,3.20
2014,06,19,11,40,1.60
2014,06,19,11,42,6.40
2014,06,19,11,43,8.10
2014,06,19,11,44,11.30
2014,06,19,11,45,16.10
2014,06,19,11,46,6.40
2014,06,19,11,47,6.40
2014,06,19,11,48,8.10
2014,06,19,11,49,6.40
2014,06,19,11,50,4.80
2014,06,19,11,52,8.10
2014,06,19,11,53,8.10
2014,06,19,11,54,11.30
2014,06,19,11,55,9.60
2014,06,19,11,56,16.10
2014,06,19,11,57,11.30
2014,06,19,11,58,8.10
2014,06,19,11,59,8.10
2014,06,19,12,00,4.80
2014,06,19,12,01,16.10
2014,06,19,12,02,14.50
2014,06,19,12,03,6.40
2014,06,19,12,04,11.30
2014,06,19,12,05,9.60
2014,06,19,12,06,9.60
2014,06,19,12,07,8.10
2014,06,19,12,08,8.10
2014,06,19,12,09,9.60
2014,06,19,12,10,6.40
2014,06,19,12,11,6.40
2014,06,19,12,12,3.20
2014,06,19,12,13,3.20
2014,06,19,12,14,6.40
2014,06,19,12,15,8.10
2014,06,19,12,16,4.80
2014,06,19,12,17,16.10
2014,06,19,12,18,8.10
2014,06,19,12,19,3.20
2014,06,19,12,20,1.60
2014,06,19,12,21,9.60
2014,06,19,12,22,8.10
2014,06,19,12,23,6.40
2014,06,19,12,24,9.60
2014,06,19,12,25,8.10
2014,06,19,12,26,6.40
2014,06,19,12,27,8.10
2014,06,19,12,28,3.20
2014,06,19,12,29,1.60
2014,06,19,12,30,1.60
2014,06,19,12,31,1.60
2014,06,19,12,32,6.40
2014,06,19,12,33,4.80
2014,06,19,12,34,4.80
2014,06,19,12,35,9.60
2014,06,19,12,36,8.10
2014,06,19,12,37,4.80
2014,06,19,12,38,6.40
2014,06,19,12,39,4.80
2014,06,19,12,40,6.40
2014,06,19,12,41,3.20
2014,06,19,12,42,3.20
2014,06,19,12,43,6.40
2014,06,19,12,44,6.40
2014,06,19,12,45,4.80
2014,06,19,12,46,8.10
2014,06,19,12,47,8.10
2014,06,19,12,48,4.80
2014,06,19,12,49,6.40
2014,06,19,12,50,4.80
2014,06,19,12,51,8.10
2014,06,19,12,52,1.60
2014,06,19,12,53,4.80
2014,06,19,12,54,8.10
2014,06,19,12,55,8.10
2014,06,19,12,56,9.60
2014,06,19,12,57,4.80
2014,06,19,12,58,17.70
2014,06,19,12,59,6.40
2014,06,19,13,00,8.10
2014,06,19,13,01,4.80
2014,06,19,13,03,6.40
2014,06,19,13,04,9.60
2014,06,19,13,05,8.10
2014,06,19,13,06,1.60
2014,06,19,13,07,11.30
2014,06,19,13,08,9.60
2014,06,19,13,09,8.10
2014,06,19,13,10,4.80
2014,06,19,13,11,6.40
2014,06,19,13,12,8.10
2014,06,19,13,13,4.80
2014,06,19,13,14,9.60
2014,06,19,13,15,6.40
2014,06,19,13,16,8.10
2014,06,19,13,17,8.10
2014,06,19,13,18,3.20
2014,06,19,13,19,8.10
2014,06,19,13,20,9.60
2014,06,19,13,21,3.20
2014,06,19,13,22,1.60
2014,06,19,13,23,4.80
2014,06,19,13,24,4.80
2014,06,19,13,25,11.30
2014,06,19,13,26,11.30
2014,06,19,13,27,12.90
2014,06,19,13,28,6.40
2014,06,19,13,29,11.30
2014,06,19,13,30,8.10
2014,06,19,13,31,12.90
2014,06,19,13,32,8.10
2014,06,19,13,33,3.20
2014,06,19,13,34,3.20
2014,06,19,13,35,6.40
2014,06,19,13,36,9.60
2014,06,19,13,37,8.10
2014,06,19,13,38,6.40
2014,06,19,13,39,4.80
2014,06,19,13,40,4.80
2014,06,19,13,41,1.60
2014,06,19,13,42,3.20
2014,06,19,13,44,1.60
2014,06,19,13,45,1.60
2014,06,19,13,46,3.20
2014,06,19,13,47,6.40
2014,06,19,13,48,9.60
2014,06,19,13,49,9.60
2014,06,19,13,50,9.60
2014,06,19,13,51,6.40
2014,06,19,13,52,1.60
2014,06,19,13,53,4.80
2014,06,19,13,55,4.80
2014,06,19,13,56,8.10
2014,06,19,13,57,8.10
2014,06,19,13,58,11.30
2014,06,19,13,59,9.60
2014,06,19,14,00,4.80
2014,06,19,14,01,8.10
2014,06,19,14,02,1.60
2014,06,19,14,03,1.60
2014,06,19,14,04,1.60
2014,06,19,14,05,1.60
2014,06,19,14,06,1.60
2014,06,19,14,07,4.80
2014,06,19,14,08,6.40
2014,06,19,14,09,8.10
2014,06,19,14,10,3.20
2014,06,19,14,11,3.20
2014,06,19,14,12,3.20
2014,06,19,14,13,3.20
2014,06,19,14,14,8.10
2014,06,19,14,15,3.20
2014,06,19,14,16,1.60
2014,06,19,14,17,6.40
2014,06,19,14,18,6.40
2014,06,19,14,20,1.60
2014,06,19,14,21,3.20
2014,06,19,14,22,4.80
2014,06,19,14,23,4.80
2014,06,19,14,25,6.40
2014,06,19,14,26,6.40
2014,06,19,14,27,3.20
2014,06,19,14,29,4.80
2014,06,19,14,30,3.20
2014,06,19,14,31,6.40
2014,06,19,14,32,3.20
2014,06,19,14,33,1.60
2014,06,19,14,34,9.60
2014,06,19,14,35,3.20
2014,06,19,14,36,3.20
2014,06,19,14,37,4.80
2014,06,19,14,38,8.10
2014,06,19,14,39,6.40
2014,06,19,14,40,9.60
2014,06,19,14,41,9.60
2014,06,19,14,42,3.20
2014,06,19,14,43,1.60
2014,06,19,14,44,6.40
2014,06,19,14,45,4.80
2014,06,19,14,46,4.80
2014,06,19,14,47,4.80
2014,06,19,14,48,8.10
2014,06,19,14,49,9.60
2014,06,19,14,50,4.80
2014,06,19,14,51,4.80
2014,06,19,14,53,1.60
2014,06,19,14,54,1.60
2014,06,19,14,55,4.80
2014,06,19,14,56,4.80
2014,06,19,14,57,3.20
2014,06,19,15,00,3.20
2014,06,19,15,01,3.20
2014,06,19,15,02,3.20
2014,06,19,15,04,3.20
2014,06,19,15,05,4.80
2014,06,19,15,08,6.40
2014,06,19,15,09,8.10
2014,06,19,15,10,4.80
2014,06,19,15,11,1.60
2014,06,19,15,12,4.80
2014,06,19,15,13,4.80
2014,06,19,15,14,4.80
2014,06,19,15,15,1.60
2014,06,19,15,16,3.20
2014,06,19,15,17,4.80
2014,06,19,15,18,6.40
2014,06,19,15,19,6.40
2014,06,19,15,20,1.60
2014,06,19,15,21,1.60
2014,06,19,15,22,4.80
2014,06,19,15,23,6.40
2014,06,19,15,24,4.80
2014,06,19,15,25,4.80
2014,06,19,15,26,6.40
2014,06,19,15,27,3.20
2014,06,19,15,28,6.40
2014,06,19,15,29,4.80
2014,06,19,15,30,1.60
2014,06,19,15,31,3.20
2014,06,19,15,32,1.60
2014,06,19,15,33,1.60
2014,06,19,15,34,1.60
2014,06,19,15,37,6.40
2014,06,19,15,38,4.80
2014,06,19,15,39,3.20
2014,06,19,15,40,1.60
2014,06,19,15,41,1.60
2014,06,19,15,42,3.20
2014,06,19,15,43,3.20
2014,06,19,15,44,1.60
2014,06,19,15,45,3.20
2014,06,19,15,46,1.60
2014,06,19,15,47,1.60
2014,06,19,15,48,6.40
2014,06,19,15,49,8.10
2014,06,19,15,50,8.10
2014,06,19,15,51,4.80
2014,06,19,15,52,1.60
2014,06,19,15,53,3.20
2014,06,19,15,54,4.80
2014,06,19,15,55,6.40
2014,06,19,15,56,6.40
2014,06,19,15,57,9.60
2014,06,19,15,58,6.40
2014,06,19,15,59,6.40
2014,06,19,16,00,4.80
2014,06,19,16,01,4.80
2014,06,19,16,02,8.10
2014,06,19,16,03,8.10
2014,06,19,16,04,4.80
2014,06,19,16,05,6.40
2014,06,19,16,06,14.50
2014,06,19,16,07,6.40
2014,06,19,16,08,4.80
2014,06,19,16,09,11.30
2014,06,19,16,10,11.30
2014,06,19,16,11,11.30
2014,06,19,16,12,8.10
2014,06,19,16,13,9.60
2014,06,19,16,14,11.30
2014,06,19,16,15,12.90
2014,06,19,16,16,11.30
2014,06,19,16,17,9.60
2014,06,19,16,18,9.60
2014,06,19,16,19,8.10
2014,06,19,16,20,8.10
2014,06,19,16,21,8.10
2014,06,19,16,22,6.40
2014,06,19,16,23,6.40
2014,06,19,16,24,6.40
2014,06,19,16,25,6.40
2014,06,19,16,26,4.80
2014,06,19,16,27,8.10
2014,06,19,16,28,6.40
2014,06,19,16,29,8.10
2014,06,19,16,30,4.80
2014,06,19,16,31,3.20
2014,06,19,16,32,8.10
2014,06,19,16,33,9.60
2014,06,19,16,34,9.60
2014,06,19,16,35,8.10
2014,06,19,16,36,6.40
2014,06,19,16,37,6.40
2014,06,19,16,38,6.40
2014,06,19,16,39,4.80
2014,06,19,16,40,1.60
2014,06,19,16,41,4.80
2014,06,19,16,42,8.10
2014,06,19,16,43,8.10
2014,06,19,16,44,8.10
2014,06,19,16,45,8.10
2014,06,19,16,46,9.60
2014,06,19,16,47,6.40
2014,06,19,16,48,8.10
2014,06,19,16,49,8.10
2014,06,19,16,50,8.10
2014,06,19,16,51,6.40
2014,06,19,16,52,4.80
2014,06,19,16,53,3.20
2014,06,19,16,54,4.80
2014,06,19,16,55,3.20
2014,06,19,16,56,4.80
2014,06,19,16,57,6.40
2014,06,19,16,58,3.20
2014,06,19,16,59,3.20
2014,06,19,17,00,4.80
2014,06,19,17,01,6.40
2014,06,19,17,02,8.10
2014,06,19,17,03,3.20
2014,06,19,17,04,6.40
2014,06,19,17,05,8.10
2014,06,19,17,06,6.40
2014,06,19,17,07,4.80
2014,06,19,17,09,1.60
2014,06,19,17,10,4.80
2014,06,19,17,11,6.40
2014,06,19,17,12,3.20
2014,06,19,17,13,1.60
2014,06,19,17,14,1.60
2014,06,19,17,15,6.40
2014,06,19,17,16,8.10
2014,06,19,17,17,8.10
2014,06,19,17,18,4.80
2014,06,19,17,19,6.40
2014,06,19,17,20,6.40
2014,06,19,17,21,6.40
2014,06,19,17,22,6.40
2014,06,19,17,23,4.80
2014,06,19,17,24,6.40
2014,06,19,17,25,6.40
2014,06,19,17,26,4.80
2014,06,19,17,27,3.20
2014,06,19,17,28,1.60
2014,06,19,17,29,8.10
2014,06,19,17,30,8.10
2014,06,19,17,31,9.60
2014,06,19,17,32,4.80
2014,06,19,17,33,8.10
2014,06,19,17,34,4.80
2014,06,19,17,35,6.40
2014,06,19,17,36,6.40
2014,06,19,17,37,6.40
2014,06,19,17,38,6.40
2014,06,19,17,39,6.40
2014,06,19,17,40,4.80
2014,06,19,17,41,4.80
2014,06,19,17,42,6.40
2014,06,19,17,43,6.40
2014,06,19,17,44,8.10
2014,06,19,17,45,3.20
2014,06,19,17,46,3.20
2014,06,19,17,47,4.80
2014,06,19,17,48,6.40
2014,06,19,17,49,6.40
2014,06,19,17,50,6.40
2014,06,19,17,51,4.80
2014,06,19,17,52,3.20
2014,06,19,17,53,1.60
2014,06,19,17,55,4.80
2014,06,19,17,56,1.60
2014,06,19,17,57,9.60
2014,06,19,17,58,8.10
2014,06,19,17,59,4.80
2014,06,19,18,00,4.80
2014,06,19,18,01,4.80
2014,06,19,18,02,6.40
2014,06,19,18,03,9.60
2014,06,19,18,04,8.10
2014,06,19,18,05,3.20
2014,06,19,18,06,3.20
2014,06,19,18,07,6.40
2014,06,19,18,08,8.10
2014,06,19,18,09,6.40
2014,06,19,18,10,6.40
2014,06,19,18,11,4.80
2014,06,19,18,12,6.40
2014,06,19,18,13,4.80
2014,06,19,18,14,1.60
2014,06,19,18,15,6.40
2014,06,19,18,16,4.80
2014,06,19,18,17,3.20
2014,06,19,18,20,3.20
2014,06,19,18,22,4.80
2014,06,19,18,23,6.40
2014,06,19,18,24,6.40
2014,06,19,18,25,1.60
2014,06,19,18,26,3.20
2014,06,19,18,27,1.60
2014,06,19,18,28,3.20
2014,06,19,18,29,4.80
2014,06,19,18,30,4.80
2014,06,19,18,33,1.60
2014,06,19,18,34,4.80
2014,06,19,18,35,4.80
2014,06,19,18,36,3.20
2014,06,19,18,37,3.20
2014,06,19,18,38,1.60
2014,06,19,18,39,1.60
2014,06,19,18,40,4.80
2014,06,19,18,41,4.80
2014,06,19,18,42,1.60
2014,06,19,18,43,3.20
2014,06,19,18,44,1.60
2014,06,19,18,45,4.80
2014,06,19,18,46,3.20
2014,06,19,18,47,3.20
2014,06,19,18,50,4.80
2014,06,19,18,55,3.20
2014,06,19,18,56,1.60
2014,06,19,19,10,1.60
2014,06,19,19,12,1.60
2014,06,19,19,15,4.80
2014,06,19,19,16,4.80
2014,06,19,19,17,1.60
2014,06,19,19,18,3.20
2014,06,19,19,19,4.80
2014,06,19,19,20,4.80
2014,06,19,19,21,1.60
2014,06,19,19,22,3.20
2014,06,19,19,23,4.80
2014,06,19,19,26,4.80
2014,06,19,19,27,4.80
2014,06,19,19,28,4.80
2014,06,19,19,29,3.20
2014,06,19,19,30,3.20
2014,06,19,19,31,1.60
2014,06,19,19,32,1.60
2014,06,19,19,33,3.20
2014,06,19,19,35,3.20
2014,06,19,19,36,3.20
2014,06,19,19,38,1.60
2014,06,19,19,45,4.80
2014,06,19,19,46,4.80
2014,06,19,19,47,1.60
2014,06,19,19,50,3.20
2014,06,19,19,52,3.20
2014,06,19,19,53,3.20
2014,06,19,19,54,1.60
2014,06,19,19,56,3.20
2014,06,19,19,57,3.20
2014,06,19,19,58,1.60
2014,06,19,19,59,3.20
2014,06,19,20,00,4.80
2014,06,19,20,01,4.80
2014,06,19,20,02,3.20
2014,06,19,20,03,3.20
2014,06,19,20,04,3.20
2014,06,19,20,05,4.80
2014,06,19,20,06,3.20
2014,06,19,20,07,3.20
2014,06,19,20,08,3.20
2014,06,19,20,09,3.20
2014,06,19,20,10,3.20
2014,06,19,20,22,1.60
2014,06,19,20,23,3.20
2014,06,19,20,30,1.60
2014,06,19,20,31,3.20
2014,06,19,20,32,4.80
2014,06,19,20,33,4.80
2014,06,19,20,34,1.60
2014,06,19,20,42,4.80
2014,06,19,20,43,3.20
2014,06,19,20,44,4.80
2014,06,19,20,45,4.80
2014,06,19,20,47,1.60
2014,06,19,20,48,3.20
2014,06,19,20,50,3.20
2014,06,19,20,51,3.20
2014,06,19,20,52,1.60
2014,06,19,20,53,3.20
2014,06,19,20,54,3.20
2014,06,19,20,55,8.10
2014,06,19,20,56,20.90
2014,06,19,20,57,8.10
2014,06,19,20,58,17.70
2014,06,19,20,59,14.50
2014,06,19,21,00,16.10
2014,06,19,21,01,16.10
2014,06,19,21,02,6.40
2014,06,19,21,03,11.30
2014,06,19,21,04,9.60
2014,06,19,21,05,16.10
2014,06,19,21,06,19.30
2014,06,19,21,07,4.80
2014,06,19,21,08,14.50
2014,06,19,21,09,8.10
2014,06,19,21,10,11.30
2014,06,19,21,11,16.10
2014,06,19,21,12,16.10
2014,06,19,21,13,19.30
2014,06,19,21,14,6.40
2014,06,19,21,15,17.70
2014,06,19,21,16,9.60
2014,06,19,21,17,14.50
2014,06,19,21,18,9.60
2014,06,19,21,19,9.60
2014,06,19,21,20,14.50
2014,06,19,21,21,14.50
2014,06,19,21,22,19.30
2014,06,19,21,23,16.10
2014,06,19,21,24,22.50
2014,06,19,21,25,9.60
2014,06,19,21,26,25.70
2014,06,19,21,27,24.20
2014,06,19,21,28,16.10
2014,06,19,21,29,24.20
2014,06,19,21,30,24.20
2014,06,19,21,31,17.70
2014,06,19,21,32,9.60
2014,06,19,21,33,24.20
2014,06,19,21,34,29.00
2014,06,19,21,35,20.90
2014,06,19,21,36,17.70
2014,06,19,21,37,17.70
2014,06,19,21,38,24.20
2014,06,19,21,39,25.70
2014,06,19,21,40,25.70
2014,06,19,21,41,19.30
2014,06,19,21,42,24.20
2014,06,19,21,43,22.50
2014,06,19,21,44,16.10
2014,06,19,21,45,16.10
2014,06,19,21,46,8.10
2014,06,19,21,47,22.50
2014,06,19,21,48,24.20
2014,06,19,21,49,20.90
2014,06,19,21,50,14.50
2014,06,19,21,51,19.30
2014,06,19,21,52,14.50
2014,06,19,21,53,20.90
2014,06,19,21,54,22.50
2014,06,19,21,55,19.30
2014,06,19,21,56,19.30
2014,06,19,21,57,17.70
2014,06,19,21,58,20.90
2014,06,19,21,59,22.50
2014,06,19,22,00,24.20
2014,06,19,22,01,25.70
2014,06,19,22,02,30.60
2014,06,19,22,03,22.50
2014,06,19,22,04,27.40
2014,06,19,22,05,32.20
2014,06,19,22,06,25.70
2014,06,19,22,07,19.30
2014,06,19,22,08,29.00
2014,06,19,22,09,16.10
2014,06,19,22,10,16.10
2014,06,19,22,11,29.00
2014,06,19,22,12,24.20
2014,06,19,22,13,11.30
2014,06,19,22,14,14.50
2014,06,19,22,15,8.10
2014,06,19,22,16,8.10
2014,06,19,22,17,3.20
2014,06,19,22,18,8.10
2014,06,19,22,19,9.60
2014,06,19,22,20,17.70
2014,06,19,22,21,27.40
2014,06,19,22,22,11.30
2014,06,19,22,23,19.30
2014,06,19,22,24,33.80
2014,06,19,22,25,48.30
2014,06,19,22,26,19.30
2014,06,19,22,27,29.00
2014,06,19,22,28,19.30
2014,06,19,22,29,17.70
2014,06,19,22,30,20.90
2014,06,19,22,31,14.50
2014,06,19,22,32,14.50
2014,06,19,22,33,14.50
2014,06,19,22,34,14.50
2014,06,19,22,35,17.70
2014,06,19,22,36,33.80
2014,06,19,22,37,17.70
2014,06,19,22,38,11.30
2014,06,19,22,39,19.30
2014,06,19,22,40,27.40
2014,06,19,22,41,16.10
2014,06,19,22,42,20.90
2014,06,19,22,43,16.10
2014,06,19,22,44,14.50
2014,06,19,22,45,17.70
2014,06,19,22,46,27.40